User: anonymous   Login
Location: Unspecified
(0.0000°N, 0.0000°E)
Time: 05:54:31
(UTC+00:00)
Language:

AUBIESAT-1 - Orbit

View from above orbital plane
View from above orbital plane
View from above satellite
View from above satellite

Ground track
Ground track

The orbit data is extracted from the following two-line orbital elements,

1 37854U 11061E   14295.31584352  .00012746  00000-0  81462-3 0  9419
2 37854 101.7086 028.0130 0208218 044.9236 003.4557 14.92700738161660
Epoch (UTC): 22 October 2014 07:34:48
Eccentricity: 0.0208218
inclination: 101.7086°
perigee height: 444 km
apogee height: 734 km
right ascension of ascending node: 28.0130°
argument of perigee: 44.9236°
revolutions per day: 14.92700738
mean anomaly at epoch: 3.4557°
orbit number at epoch: 16166

The dashed part of the orbit path shows where the satellite is in the earth's shadow,  

DLR